Regional Weather Roundup
Issued by NWS Upton, NY

Current Version | Previous Version | Text Only | Print | Product List | Glossary Off
Versions: 1 2 3 4 5 6 7 8 9 10 11 12 13 14 15 16 17 18 19 20 21 22 23 24 25 26 27 28 29 30 31 32 33 34 35 36 37 38 39 40 41 42 43 44 45 46 47 48 49 50
000 ASUS41 KOKX 230705 RWROKX REGIONAL WEATHER ROUNDUP NATIONAL WEATHER SERVICE NEW YORK NY 200 AM EST SUN NOV 23 2014 NOTE: "FAIR" INDICATES FEW OR NO CLOUDS BELOW 12,000 FEET WITH NO SIGNIFICANT WEATHER AND/OR OBSTRUCTIONS TO VISIBILITY. NYZ071-072-176-178-NJZ106-104-230800- NEW YORK CITY METRO AREA CITY SKY/WX TMP DP RH WIND PRES REMARKS CENTRAL PARK CLOUDY 45 20 36 W9 30.20S LAGUARDIA APRT CLOUDY 45 21 38 SW12 30.18F KENNEDY INTL CLOUDY 44 26 49 SW14 30.20F NEWARK/LIBERTY CLOUDY 43 22 43 SW9 30.19S BRNX BOT. GARD N/A N/A N/A N/A SW13 30.19F TETERBORO CLOUDY 41 21 44 SW3 30.18S $$ NYZ177-179-078>081-230800- LONG ISLAND NEW YORK CITY SKY/WX TMP DP RH WIND PRES REMARKS FARMINGDALE CLOUDY 45 23 42 SW10 30.19F ISLIP MOCLDY 44 26 49 SW12 30.18S SHIRLEY MOCLDY 45 26 47 SW10 30.20S WESTHAMPTON CLOUDY 46 27 47 SW15 30.20S MONTAUK POINT N/A 47 32 56 SW13G21 30.17F $$ NYZ052-065-067-230800- HUDSON VALLEY CITY SKY/WX TMP DP RH WIND PRES REMARKS WHITE PLAINS CLOUDY 42 18 37 W3 30.16R NEWBURGH MOCLDY 39 21 48 SW6 30.16S WCI 35 MONTGOMERY CLOUDY 39 20 46 SW7 30.14S WCI 34 POUGHKEEPSIE CLOUDY 43 19 38 SW8 30.16S ALBANY LGT RAIN 36 30 79 S12 30.09S WCI 28 $$ NJZ001-105-106-008-010-013-015-019>022-104-230800- NEW JERSEY CITY SKY/WX TMP DP RH WIND PRES REMARKS NEWARK/LIBERTY CLOUDY 43 22 43 SW9 30.19S TETERBORO CLOUDY 41 21 44 SW3 30.18S CALDWELL CLOUDY 41 19 41 SW5 30.18S MORRISTOWN N/A 43 19 39 SW3 30.18S SOMERVILLE CLOUDY 38 22 52 CALM 30.19S SUSSEX CLOUDY 38 21 50 SW5 30.15F WCI 34 ANDOVER N/A 36 22 56 CALM 30.16F TRENTON MOCLDY 41 23 48 SW6 30.20F MILLVILLE CLOUDY 43 24 47 VRB3 30.25S ATLANTIC CITY CLOUDY 44 23 43 SW12 30.25S WRIGHTSTOWN MOCLDY 39 21 47 SW1 30.20S TOMS RIVER PTCLDY 39 23 52 CALM 30.22F BELMAR MOCLDY 43 19 39 SW9 30.21S $$ PAZ047>061-062-071-230800- EASTERN PENNSYLVANIA CITY SKY/WX TMP DP RH WIND PRES REMARKS PHILADELPHIA MOCLDY 42 24 49 SW9 30.24S ALLENTOWN CLOUDY 35 23 61 CALM 30.18F SCRANTON CLOUDY 40 17 39 S10 30.13F WCI 33 $$ CTZ002-004>006-009-010-012-RIZ004-006-007-MAZ004-011-015-230800- SOUTHERN NEW ENGLAND IN CT CITY SKY/WX TMP DP RH WIND PRES REMARKS BRADLEY INTL CLOUDY 44 19 36 S13 30.11R HARTFORD CLOUDY 42 19 39 S6 30.15R DANBURY CLOUDY 40 18 41 SW5 30.16F WTRBRY/OXFORD CLOUDY 39 18 41 W7 30.16R WCI 34 BRIDGEPORT CLOUDY 45 28 51 W12 30.17S MERIDEN CLOUDY 42 18 37 S10 30.16S NEW HAVEN CLOUDY 48 26 42 W9G18 30.17S CHESTER FAIR 43 28 56 W5 30.16R GROTON CLOUDY 45 30 55 W18G28 30.16R WILLIMANTIC CLOUDY 43 19 38 S6 30.14S IN RI CITY SKY/WX TMP DP RH WIND PRES REMARKS PROVIDENCE CLOUDY 43 26 51 SW8 30.12S BLOCK ISLAND CLOUDY 46 30 53 W21G30 30.15F WESTERLY CLOUDY 45 28 51 SW16G23 30.16S IN MA CITY SKY/WX TMP DP RH WIND PRES REMARKS BOSTON CLOUDY 44 23 43 SW16 30.07R WORCESTER CLOUDY 40 22 48 W23 30.05R WCI 30 WESTFIELD CLOUDY 36 30 79 CALM 30.11R PROVINCETOWN CLOUDY 48 32 53 W18G26 30.09F NANTUCKET CLOUDY 52 41 66 W29G36 30.14R $$ ANZ330-335-338-340-345-350-353-355-230800- COASTAL MARINE OBSERVATIONS STATION/POSITION TIME SKY/WX TEMP WIND PRES VSBY WAVE AIR SEA DIR/SP/G HT/PER (UTC) (F) (DEG/KT/KT) (MB) (MI) (FT/S) NY HARB ENTRANCE 0700 47 57 240/ 17/ 21 1022.9 5/ 6 4S FIRE IS 0700 52 N/A 6/ 7 20S FIRE ISLAND 0700 49 53 250/ 21/ 27 1022.7 8/ 7 23SW MTP 0700 N/A 9/ 8 HUDSON CANYON 0700 53 58 250/ 23/ 27 1023.5 8/ 7 EXECUTION ROCKS 0600 46 47 250/ 17/ 23 N/A WESTERN LI SOUND 0600 47 230/ 17/ 21 N/A 2/ 3 CENTRAL LI SOUND 0600 46 50 230/ 19/ 23 N/A 4/ 5 EASTERN LI SOUND 0600 47 52 230/ 17/ 23 N/A ROBBINS REEF 0700 44 240/ 16/ 19 1020.7 $$ >>>>>>>>>>>>>>>>>>>>>>>>>>>> KEY <<<<<<<<<<<<<<<<<<<<<<<<<<< > < > SKY/WX - SKY CONDITION/PRESENT WEATHER < > TMP - TEMPERATURE IN FAHRENHEIT < > DP - DEWPOINT IN FAHRENHEIT < > RH - RELATIVE HUMIDITY IN PERCENT < > WIND - DIRECTION AND SPEED IN MPH < > PRES - MEAN SEA LEVEL PRESSURE IN INCHES OF HG < > WCI - WIND CHILL INDEX < > VSB - VISIBILITY IN MILES < > HX - HEAT INDEX < > TC - TEMPERATURE IN CELSIUS < > VRB - VARIABLE WIND DIRECTION < > < >>>>>>>>>>>>>>>>>>>>>>>>>>>> KEY <<<<<<<<<<<<<<<<<<<<<<<<<<<

USA.gov is the U.S. government's official web portal to all federal, state and local government web resources and services.